THOR ABLESTAR DEB, 252

Orbit data source: Space-Track

THOR ABLESTAR DEB, 252 is space debris in LEO originally from a launch on Thu, 29 Jun 1961 UTC launched from the Air Force Eastern Test Range (AFETR). Debris objects in space refer to the collection of defunct objects orbiting the Earth. Examples of debris include non-operational satellites, rocket bodies, and fragments generated from explosions, collisions, or faulty payload assembly.

Loading next visibility...
Identifier
252, 1961-015CD
Orbit
LEO
Country
Flag of USUS
Related business
Manufacturer
Unknown
Mission
Spacecraft
Bus & Motor
Unknown
Mass
Unknown
Launch date (UTC)
1961-06-29 (64 years ago)
Launch vehicle
Unknown
Launch site
Air Force Eastern Test Range (AFETR)
Object type
Payload
Rocket body
Debris
Shape & HBR
Unknown shape, 0.4 m
Radar Cross Section
Small (<0.1 m²)

Expand to show TLE details & history
Last TLE update: 23 hours ago

TLE from 23 hours ago
0 THOR ABLESTAR DEB
1 00252U 61015CD  25293.82213233  .00000316  00000-0  38463-3 0  9994
2 00252  67.0803  31.8819 0051104  11.3028  97.1931 13.77643842218355
Epoch: 2025-10-20T19:43Z
TLE epoch observation values (Epoch: 2025-10-20T19:43:52.233Z)
Latitude
60.62698°
Longitude
-161.963°
Altitude
986.668 km
Speed
7.362 km/s
True Right ascension
10h 54m 05s
True Declination
60° 29' 04"
Sunlit
Object was in daylight at epoch
Visualization orbit readout
Latitude
Unknown
Longitude
Unknown
Altitude
Unknown
Speed
Unknown
Apparent Right ascension
Unknown
Apparent Declination
Unknown
Sunlit
N/A
Visualization observer readout
Local Sidereal Time
13:58:16
Azimuth
Unknown
Elevation
Unknown
Doppler factor
Unknown
Orbital elements
Apogee altitude
1,008.183 km
Perigee altitude
933.072 km
Semi-major axis
7,348.765 km
Eccentricity
0.00511
Inclination
67.0803°
RAAN
31.8819°
Arg. of periapsis
11.3028°
True anomaly
97.77363°
Mean anomaly
97.1931°
Eccentric anomaly
97.48341°
Mean motion
3.44526 °/min
Orbital period
104.49 mins
BSTAR
0.00038463

Documentation

Showing up to 5 results
|